TimeMDT,TemperatureF,Dew PointF,Humidity,Sea Level PressureIn,VisibilityMPH,Wind Direction,Wind SpeedMPH,Gust SpeedMPH,PrecipitationIn,Events,Conditions,WindDirDegrees,DateUTC
12:55 AM,51.8,15.3,23,29.88,10.0,ESE,16.1,-,N/A,,Clear,110,2012-10-10 06:55:00
1:55 AM,50.0,15.6,25,29.88,10.0,ESE,18.4,-,N/A,,Clear,110,2012-10-10 07:55:00
2:55 AM,49.6,15.4,26,29.89,10.0,ESE,18.4,-,N/A,,Clear,110,2012-10-10 08:55:00
3:55 AM,49.6,16.3,27,29.89,10.0,ESE,18.4,23.0,N/A,,Clear,110,2012-10-10 09:55:00
4:55 AM,48.9,15.6,27,29.88,10.0,ESE,18.4,-,N/A,,Clear,110,2012-10-10 10:55:00
5:55 AM,48.6,16.2,28,29.90,10.0,ESE,18.4,-,N/A,,Partly Cloudy,110,2012-10-10 11:55:00
6:55 AM,47.1,16.2,29,29.90,10.0,ESE,19.6,-,N/A,,Clear,110,2012-10-10 12:55:00
7:55 AM,46.9,17.2,31,29.93,10.0,East,20.7,-,N/A,,Clear,100,2012-10-10 13:55:00
8:55 AM,49.3,17.6,28,29.95,10.0,ESE,16.1,-,N/A,,Clear,110,2012-10-10 14:55:00
10:55 AM,59.5,22.3,24,29.93,10.0,ESE,12.7,-,N/A,,Clear,110,2012-10-10 16:55:00
11:55 AM,67.5,26.2,21,29.89,10.0,ESE,5.8,-,N/A,,Clear,110,2012-10-10 17:55:00
12:55 PM,70.5,28.6,21,29.87,10.0,SW,8.1,-,N/A,,Partly Cloudy,220,2012-10-10 18:55:00
1:55 PM,72.3,28.2,19,29.85,10.0,SW,6.9,-,N/A,,Clear,220,2012-10-10 19:55:00
2:55 PM,72.3,30.7,22,29.82,10.0,SW,4.6,-,N/A,,Clear,220,2012-10-10 20:55:00
3:55 PM,73.4,30.6,21,29.81,10.0,WNW,5.8,-,N/A,,Clear,290,2012-10-10 21:55:00
4:55 PM,72.5,30.2,21,29.79,10.0,North,4.6,-,N/A,,Clear,360,2012-10-10 22:55:00
5:55 PM,71.6,31.3,23,29.78,10.0,NNW,5.8,-,N/A,,Clear,340,2012-10-10 23:55:00
6:55 PM,67.8,30.2,25,29.81,10.0,Calm,Calm,-,N/A,,Clear,0,2012-10-11 00:55:00
7:55 PM,65.8,30.4,27,29.82,10.0,ENE,3.5,-,N/A,,Clear,70,2012-10-11 01:55:00
8:55 PM,61.3,29.7,30,29.84,10.0,ESE,5.8,-,N/A,,Scattered Clouds,110,2012-10-11 02:55:00
9:55 PM,62.4,28.0,27,29.82,10.0,South,11.5,-,N/A,,Overcast,170,2012-10-11 03:55:00
10:55 PM,62.8,39.0,42,29.81,10.0,South,12.7,-,N/A,,Scattered Clouds,180,2012-10-11 04:55:00
11:55 PM,63.7,39.9,42,29.75,10.0,South,10.4,-,N/A,,Overcast,180,2012-10-11 05:55:00